User: anonymous   Login
Location: Unspecified
(0.0000°N, 0.0000°E)
Time: 13:02:14
(UTC+00:00)
Language:

VELOX 1 - Orbit

View from above orbital plane
View from above orbital plane
View from above satellite
View from above satellite

Ground track
Ground track

The orbit data is extracted from the following two-line orbital elements,

1 40057U 14034E   19197.10133469  .00000193  00000-0  34606-4 0  9998
2 40057  98.2384 320.7840 0011927 141.5089 218.6968 14.77676645271816
Epoch (UTC): 16 July 2019 02:25:55
Eccentricity: 0.0011927
inclination: 98.2384°
perigee height: 628 km
apogee height: 645 km
right ascension of ascending node: 320.7840°
argument of perigee: 141.5089°
revolutions per day: 14.77676645
mean anomaly at epoch: 218.6968°
orbit number at epoch: 27181

The dashed part of the orbit path shows where the satellite is in the earth's shadow,  

DLR